EZY9KM EDXW-EDSB

Flight info

Callsign EZY9KM
Flight time N/A
Altitude 28000
Route OLDIP1B OLDIP DCT BADOS DCT OMWEG/N0397F220 Y348 ELSOB/N0404F230 N850 KRH KRH1L
Aircraft A319/M-SDE3FGHIRWY/LB1

Departure

Time 2026-05-05 17:43
Airport Westerland Sylt Airport (EDXW)

Arrival

Time N/A
Airport Karlsruhe Baden-Baden Airport (EDSB)
Time Latitude Longitude Altitude Speed Heading
2026-05-05 17:11 54.91387 8.33123 58 ft 0 kts 269°
2026-05-05 17:35 54.91387 8.33125 58 ft 2 kts 269°
2026-05-05 17:35 54.91387 8.33169 56 ft 4 kts 265°
2026-05-05 17:35 54.91393 8.33213 52 ft 4 kts 238°
2026-05-05 17:35 54.91406 8.33240 50 ft 0 kts 217°
2026-05-05 17:37 54.91390 8.33238 53 ft 5 kts 171°
2026-05-05 17:38 54.91334 8.33234 58 ft 11 kts 196°
2026-05-05 17:38 54.91246 8.33177 58 ft 15 kts 182°
2026-05-05 17:38 54.91125 8.33182 56 ft 19 kts 179°
2026-05-05 17:38 54.90990 8.33121 52 ft 13 kts 206°
2026-05-05 17:39 54.90899 8.33159 58 ft 16 kts 153°
2026-05-05 17:39 54.90778 8.33215 57 ft 20 kts 173°
2026-05-05 17:39 54.90627 8.33237 58 ft 24 kts 176°
2026-05-05 17:39 54.90459 8.33299 56 ft 26 kts 155°
2026-05-05 17:40 54.90320 8.33501 58 ft 27 kts 125°
2026-05-05 17:40 54.90253 8.33815 55 ft 29 kts 98°
2026-05-05 17:40 54.90237 8.34166 58 ft 29 kts 84°
2026-05-05 17:40 54.90272 8.34510 51 ft 29 kts 81°
2026-05-05 17:41 54.90303 8.34803 56 ft 18 kts 79°
2026-05-05 17:41 54.90326 8.35021 58 ft 19 kts 79°
2026-05-05 17:41 54.90390 8.35185 56 ft 11 kts 28°
2026-05-05 17:41 54.90425 8.35162 58 ft 0 kts 324°
2026-05-05 17:42 54.90425 8.35161 58 ft 0 kts 324°
2026-05-05 17:42 54.90470 8.35106 56 ft 33 kts 324°
2026-05-05 17:42 54.90875 8.34605 51 ft 107 kts 324°
2026-05-05 17:43 54.91591 8.33704 371 ft 131 kts 327°
2026-05-05 17:43 54.92321 8.32803 1085 ft 128 kts 328°
2026-05-05 17:43 54.93080 8.31869 1622 ft 143 kts 329°
2026-05-05 17:43 54.93958 8.30792 2044 ft 165 kts 328°
2026-05-05 17:44 54.94961 8.29554 2428 ft 188 kts 329°
2026-05-05 17:44 54.96090 8.28159 2863 ft 207 kts 327°
2026-05-05 17:44 54.97283 8.26673 3509 ft 214 kts 327°
2026-05-05 17:44 54.98396 8.24899 4189 ft 225 kts 303°
2026-05-05 17:45 54.98703 8.22233 4855 ft 232 kts 260°
2026-05-05 17:45 54.98057 8.19688 5736 ft 229 kts 236°
2026-05-05 17:45 54.97098 8.17491 6628 ft 228 kts 230°
2026-05-05 17:45 54.96073 8.15381 7466 ft 228 kts 230°
2026-05-05 17:46 54.94915 8.13530 8325 ft 229 kts 210°
2026-05-05 17:46 54.93368 8.12838 9214 ft 235 kts 184°
2026-05-05 17:46 54.91723 8.13510 9640 ft 265 kts 152°
2026-05-05 17:46 54.90166 8.15522 10018 ft 291 kts 144°
2026-05-05 17:47 54.88570 8.17808 10682 ft 301 kts 143°
2026-05-05 17:47 54.86952 8.20169 11508 ft 305 kts 143°
2026-05-05 17:47 54.85312 8.22555 12342 ft 309 kts 143°
2026-05-05 17:47 54.83647 8.24956 13177 ft 314 kts 144°
2026-05-05 17:48 54.81908 8.27271 13951 ft 316 kts 151°
2026-05-05 17:48 54.80049 8.29320 14673 ft 319 kts 152°
2026-05-05 17:48 54.78157 8.31385 15394 ft 323 kts 153°
2026-05-05 17:48 54.76239 8.33467 16102 ft 327 kts 153°
2026-05-05 17:49 54.74301 8.35571 16815 ft 331 kts 153°
2026-05-05 17:49 54.72337 8.37706 17530 ft 335 kts 153°
2026-05-05 17:49 54.70383 8.39964 18206 ft 343 kts 146°
2026-05-05 17:49 54.68632 8.42941 18457 ft 367 kts 132°
2026-05-05 17:50 54.67266 8.46833 18575 ft 393 kts 116°
2026-05-05 17:50 54.66230 8.51314 18842 ft 408 kts 114°
2026-05-05 17:50 54.65174 8.55896 19340 ft 413 kts 115°
2026-05-05 17:50 54.64092 8.60520 19914 ft 417 kts 115°
2026-05-05 17:51 54.62991 8.65171 20503 ft 420 kts 115°
2026-05-05 17:51 54.61702 8.69691 21066 ft 420 kts 126°
2026-05-05 17:51 54.59907 8.73636 21656 ft 417 kts 139°
2026-05-05 17:51 54.57868 8.77201 22234 ft 419 kts 139°
2026-05-05 17:52 54.55815 8.80786 22797 ft 422 kts 140°
2026-05-05 17:52 54.53743 8.84403 23322 ft 426 kts 140°
2026-05-05 17:52 54.51659 8.88044 23793 ft 429 kts 140°
2026-05-05 17:52 54.49585 8.91664 24236 ft 431 kts 140°
2026-05-05 17:53 54.47445 8.95398 24692 ft 434 kts 140°
2026-05-05 17:53 54.45348 8.99054 25121 ft 436 kts 140°
2026-05-05 17:53 54.43206 9.02772 25551 ft 439 kts 140°
2026-05-05 17:53 54.41050 9.06506 25960 ft 441 kts 140°
2026-05-05 17:54 54.38888 9.10250 26447 ft 442 kts 140°
2026-05-05 17:54 54.36590 9.13697 26891 ft 437 kts 149°
2026-05-05 17:54 54.34040 9.16486 27334 ft 433 kts 156°
2026-05-05 17:54 54.31426 9.19080 27759 ft 436 kts 156°
2026-05-05 17:55 54.28805 9.21691 27888 ft 434 kts 156°
2026-05-05 17:55 54.26222 9.24277 27921 ft 427 kts 156°
2026-05-05 17:55 54.23662 9.26834 27917 ft 425 kts 156°
2026-05-05 17:55 54.21112 9.29372 27918 ft 424 kts 156°